x

South Hatteras - 225 South Of Cape Hatteras (41002) Wave Buoy

6:50 - Tue 26th May 2015 All times are EDT. -4 hours from GMT.

  • Sig Wave height 3.9ft
  • Swell Direction
  • Peak Period 6s
  • Average Period 5s
  • Wind
    13mph, 18mph gusts
  • Sea Temp 74°f
  • Air Temp 74°f
  • Sea Pressure 1026.6mb
  • South Hatteras - 225 South Of Cape Hatteras
  • South Hatteras - 225 South Of Cape Hatteras

More Historic Weather Station data

Upgrade to MSW Pro to gain access to the past 30 days of data for over 8000 Wavebouys and Weather Stations around the globe.

Join Pro

Comparision Forecast

View Surf forecast
   
mar. 05/26 6:50 4ft 6s 5s 13 18 mph 1026.6mb 74f 74f
5:50 3.5ft 6s 5s 13 18 mph 1026mb 74f 73f
4:50 4ft 7s 5s 16 18 mph 1025.9mb 74f 73f
3:50 4ft 7s 5s 16 18 mph 1025.8mb 74f 73f
2:50 3.5ft 6s 5s 16 18 mph 1026.1mb 74f 73f
1:50 3.5ft 7s 5s 13 16 mph 1026.4mb 74f 74f
12:50 3.5ft 6s 5s 16 18 mph 1026.9mb 74f 74f
lun. 05/25 11:50 3.5ft 6s 5s 16 18 mph 1026.8mb 74f 74f
10:50 3.5ft 5s 4s 18 20 mph 1026.9mb 74f 74f
9:50 3.5ft 7s 4s 18 22 mph 1026.5mb 74f 74f
8:50 3.5ft 7s 5s 16 18 mph 1026.3mb 74f 75f
7:50 3.5ft 6s 5s 13 16 mph 1026.2mb 75f 74f
6:50 3.5ft 6s 5s 13 16 mph 1025.9mb 75f 75f
5:50 3.5ft 6s 4s 13 18 mph 1026.2mb 75f 75f
4:50 3.5ft 6s 5s 13 16 mph 1026.4mb 75f 75f
3:50 3.5ft 6s 4s 13 16 mph 1026.4mb 75f 74f
2:50 3.5ft 6s 4s 16 18 mph 1026.7mb 74f 74f
1:50 3.5ft 6s 4s 16 18 mph 1027.2mb 74f 74f
12:50 3.5ft 5s 4s 13 18 mph 1027.4mb 74f 74f
11:50 4ft 5s 4s 16 20 mph 1027.5mb 74f 74f
10:50 3.5ft 5s 5s 16 20 mph 1027.7mb 74f 74f
9:50 3.5ft 6s 4s 16 20 mph 1027.6mb 74f 73f
8:50 3.5ft 5s 5s 18 20 mph 1027.5mb 74f 73f
7:50 3.5ft 6s 5s 16 20 mph 1027.1mb 74f 73f
6:50 3.5ft 6s 5s 16 18 mph 1026.8mb 74f 73f
5:50 3.5ft 6s 5s 13 16 mph 1026.4mb 74f 73f
4:50 4ft 6s 5s 13 16 mph 1026.2mb 74f 73f
3:50 4ft 6s 5s 13 18 mph 1026.1mb 74f 73f
2:50 4ft 6s 5s 16 18 mph 1026.2mb 74f 73f
1:50 4ft 6s 5s 16 20 mph 1026.2mb 74f 73f
12:50 4ft 6s 5s 16 20 mph 1026.5mb 74f 73f
dim. 05/24 11:50 4ft 6s 5s 16 20 mph 1026.9mb 74f 72f
10:50 4ft 6s 5s 18 20 mph 1026.9mb 74f 72f
9:50 4.5ft 6s 5s 16 20 mph 1026.9mb 74f 72f
8:50 4.5ft 6s 5s 16 20 mph 1026.7mb 74f 72f
7:50 4.5ft 7s 5s 16 18 mph 1026.9mb 74f 72f
6:50 5ft 6s 5s 18 22 mph 1026.7mb 74f 72f
5:50 5ft 7s 5s 18 20 mph 1026.7mb 74f 72f
4:50 5.5ft 6s 5s 18 22 mph 1026.7mb 74f 72f
3:50 5.5ft 7s 5s 18 25 mph 1027mb 74f 72f
2:50 6ft 6s 5s 20 25 mph 1027.5mb 74f 72f
1:50 5.5ft 7s 5s 20 25 mph 1028.4mb 74f 72f
12:50 5.5ft 7s 5s 20 25 mph 1028.2mb 74f 72f
11:50 6ft 6s 5s 22 25 mph 1028.4mb 74f 72f
10:50 6ft 6s 5s 20 25 mph 1028.2mb 74f 72f
9:50 6ft 6s 5s 22 27 mph 1028.2mb 74f 73f
8:50 6ft 6s 5s 22 25 mph 1027.9mb 74f 72f
7:50 6ft 6s 5s 22 25 mph 1027.5mb 74f 72f
6:50 6ft 7s 5s 22 27 mph 1027.4mb 74f 72f
5:50 6.5ft 7s 5s 22 25 mph 1026.7mb 74f 72f
4:50 6ft 7s 5s 22 27 mph 1026.4mb 74f 72f
3:50 6.5ft 7s 5s 22 27 mph 1026.2mb 74f 72f
2:50 6.5ft 7s 5s 22 29 mph 1026.1mb 74f 72f
1:50 6.5ft 6s 5s 22 27 mph 1026.7mb 74f 72f
12:50 7ft 6s 5s 25 29 mph 1026.9mb 74f 72f
sam. 05/23 11:50 7ft 6s 5s 25 29 mph 1027.4mb 74f 72f
10:50 6.5ft 6s 5s 25 31 mph 1027.8mb 74f 72f
9:50 6.5ft 6s 5s 22 27 mph 1027.3mb 74f 72f
8:50 6ft 5s 5s 25 29 mph 1026.9mb 74f 72f
7:50 6ft 6s 5s 22 27 mph 1027mb 74f 72f
6:50 5.5ft 6s 5s 25 29 mph 1026.6mb 74f 72f
5:50 5.5ft 6s 5s 22 27 mph 1026.6mb 75f 72f
4:50 6ft 5s 5s 22 27 mph 1026.7mb 75f 72f
3:50 5.5ft 5s 5s 22 27 mph 1026.7mb 75f 72f
2:50 5.5ft 5s 5s 20 27 mph 1027.1mb 75f 72f
1:50 5ft 6s 5s 20 25 mph 1027.1mb 74f 71f
11:50 5ft 5s 5s 20 22 mph 1027.7mb 74f 71f
10:50 5ft 8s 5s 20 22 mph 1027.5mb 74f 71f
9:50 5ft 5s 5s 20 22 mph 1027.1mb 74f 71f
8:50 5ft 8s 5s 20 25 mph 1026.3mb 74f 71f
7:50 5ft 6s 5s 20 25 mph 1025.3mb 74f 71f
6:50 5.5ft 9s 5s 20 22 mph 1025mb 74f 71f
5:50 5.5ft 5s 5s 18 22 mph 1024.4mb 74f 71f
4:50 6ft 9s 5s 20 22 mph 1023.9mb 74f 71f
3:50 5.5ft 9s 5s 18 25 mph 1023.4mb 74f 71f
2:50 5.5ft 9s 5s 18 22 mph 1022.8mb 74f 71f
1:50 5.5ft 9s 5s 18 20 mph 1022.9mb 74f 72f
12:50 5ft 9s 5s 18 22 mph 1023.2mb 74f 72f
ven. 05/22 11:50 5.5ft 9s 5s 18 22 mph 1023.2mb 74f 72f
10:50 5.5ft 8s 6s 20 22 mph 1022.8mb 74f 72f
9:50 5.5ft 9s 5s 20 25 mph 1021.8mb 74f 72f
8:50 5ft 8s 5s 18 20 mph 1021.4mb 74f 72f
7:50 5ft 8s 5s 18 22 mph 1021.2mb 74f 72f
6:50 5ft 6s 5s 18 20 mph 1020.3mb 75f 73f
5:50 5ft 6s 5s 18 22 mph 1020.2mb 75f 73f
4:50 4.5ft 6s 5s 18 20 mph 1020.1mb 75f 73f
3:50 4.5ft 4s 4s 20 22 mph 1019.5mb 75f 73f
2:50 4.5ft 6s 4s 20 22 mph 1019.2mb 75f 73f
1:50 4.5ft 7s 4s 20 22 mph 1018.9mb 75f 73f
12:50 4.5ft 6s 5s 20 22 mph 1018.9mb 75f 73f